Bad Kleinkirchheim, Austria 16 day weather forecast

Slopes altitude range 1090 m - 2055m

Number of lifts: 25 Pistes: 103km

In some cases the lift and piste totals shown are for the ski domain (e.g. Three Valleys) rather than individual resort (e.g. Courchevel)

Overview

The 16 day weather forecast is fully updated 4 times every day.

    • Mon 22 APR 2019
    • Mon 22
    • 5C 14C
    • Tue 23 APR 2019
    • Tue 23
    • 3C 5C
    • Wed 24 APR 2019
    • Wed 24
    • 5C 13C
    • Thu 25 APR 2019
    • Thu 25
    • 6C 14C
    • Fri 26 APR 2019
    • Fri 26
    • 6C 14C
    • Sat 27 APR 2019
    • Sat 27
    • 3C 9C
    • Sun 28 APR 2019
    • Sun 28
    • 6C 15C
    • Mon 29 APR 2019
    • Mon 29
    • 7C 12C
    • Tue 30 APR 2019
    • Tue 30
    • 1C 4C
    • Wed 01 MAY 2019
    • Wed 01
    • -1C 5C
    • Thu 02 MAY 2019
    • Thu 02
    • -3C 7C
    • Fri 03 MAY 2019
    • Fri 03
    • -1C 11C
    • Sat 04 MAY 2019
    • Sat 04
    • -1C 14C
    • Sun 05 MAY 2019
    • Sun 05
    • 4C 16C
    • Mon 06 MAY 2019
    • Mon 06
    • 4C 9C
    • Tue 07 MAY 2019
    • Tue 07
    • 2C 5C

Date:

Time Type 0°C level Temp Chill Snow Cloud Speed Gust Dir Press
3:00 2897m 2°C 2_3 0cm 82% 3mph 4mph 1017mB
6:00 2967m 2°C 2_2 0cm 86% 2mph 3mph 1015mB
9:00 2955m 5°C 5_5 0cm 59% 5mph 6mph 1012mB
12:00 2783m 14°C 14_6 0cm 80% 6mph 7mph 1010mB
15:00 2800m 15°C 15_8 0cm 58% 8mph 9mph 1008mB
18:00 2763m 15°C 15_5 0cm 62% 5mph 6mph 1008mB
21:00 2715m 2°C 2_3 0cm 76% 3mph 4mph 1009mB
0:00 2427m 2°C 2_3 0cm 87% 3mph 6mph 1008mB
3:00 2259m 1°C 1_2 0cm 100% 2mph 3mph 1007mB
6:00 2104m 1°C 1_5 0cm 100% 5mph 7mph 1006mB
9:00 2036m 3°C 3_6 0cm 100% 6mph 10mph 1005mB
12:00 2080m 5°C 5_5 0cm 100% 5mph 9mph 1005mB
15:00 2208m 5°C 5_5 0cm 100% 5mph 9mph 1005mB
18:00 2475m 5°C 5_4 0cm 100% 4mph 7mph 1005mB
21:00 2652m 3°C 3_4 0cm 97% 4mph 6mph 1007mB
0:00 2687m 3°C 3_3 0cm 97% 3mph 6mph 1008mB
3:00 2731m 3°C 3_5 0cm 100% 5mph 11mph 1009mB
6:00 2833m 3°C 3_6 0cm 100% 6mph 12mph 1010mB
9:00 2774m 5°C 5_9 0cm 99% 9mph 17mph 1011mB
12:00 2688m 13°C 13_12 0cm 73% 12mph 22mph 1011mB
15:00 3311m 13°C 13_11 0cm 5% 11mph 22mph 1011mB
18:00 3572m 13°C 13_5 0cm 35% 5mph 10mph 1012mB
21:00 3542m 5°C 5_4 0cm 98% 4mph 8mph 1015mB
0:00 2648m 5°C 5_3 0cm 99% 3mph 5mph 1017mB
3:00 2666m 5°C 5_4 0cm 100% 4mph 8mph 1018mB
6:00 3083m 5°C 5_7 0cm 100% 7mph 14mph 1017mB
9:00 3039m 6°C 6_11 0cm 93% 11mph 26mph 1017mB
12:00 2970m 14°C 14_13 0cm 48% 13mph 30mph 1015mB
15:00 3383m 14°C 14_11 0cm 1% 11mph 23mph 1015mB
18:00 3486m 14°C 14_5 0cm 1% 5mph 11mph 1015mB
21:00 3435m 5°C 5_5 0cm 65% 5mph 11mph 1017mB
0:00 3215m 5°C 5_5 0cm 83% 5mph 11mph 1016mB
3:00 2848m 5°C 5_4 0cm 100% 4mph 6mph 1015mB
6:00 2599m 4°C 4_3 0cm 100% 3mph 6mph 1014mB
9:00 2544m 6°C 6_7 0cm 99% 7mph 12mph 1014mB
12:00 2727m 14°C 14_11 0cm 84% 11mph 23mph 1013mB
15:00 2746m 14°C 14_11 0cm 36% 11mph 22mph 1015mB
18:00 1917m 14°C 14_8 4cm 68% 8mph 15mph 1018mB
21:00 1607m 0°C 0_8 1cm 99% 8mph 15mph 1021mB
0:00 1563m 0°C 0_6 1cm 90% 6mph 13mph 1022mB
3:00 1528m 0°C 0_6 0cm 90% 6mph 11mph 1023mB
6:00 1687m -1°C -1_8 0cm 68% 8mph 17mph 1024mB
9:00 1987m 3°C 3_11 0cm 6% 11mph 21mph 1024mB
12:00 2119m 9°C 9_10 0cm 5% 10mph 16mph 1023mB
15:00 2209m 9°C 9_9 0cm 3% 9mph 15mph 1022mB
18:00 2194m 9°C 9_5 0cm 2% 5mph 8mph 1024mB
21:00 1902m 0°C 0_6 0cm 27% 6mph 6mph 1027mB
0:00 1901m 0°C 0_5 0cm 31% 5mph 6mph 1027mB
3:00 1961m 0°C 0_5 0cm 3% 5mph 6mph 1026mB
6:00 2535m 0°C 0_3 0cm 26% 3mph 6mph 1025mB
9:00 2479m 6°C 6_1 0cm 96% 1mph 5mph 1023mB
12:00 2681m 15°C 15_3 0cm 98% 3mph 5mph 1021mB
15:00 2751m 13°C 13_2 0cm 100% 2mph 3mph 1020mB
18:00 2743m 13°C 13_0 0cm 99% 0mph 1mph 1021mB
21:00 2865m 4°C 4_4 0cm 77% 4mph 5mph 1022mB
0:00 2861m 3°C 3_3 0cm 84% 3mph 4mph 1021mB
3:00 2894m 2°C 2_3 0cm 82% 3mph 3mph 1019mB
6:00 2941m 2°C 2_2 0cm 86% 2mph 3mph 1017mB
9:00 2694m 7°C 7_5 0cm 95% 5mph 7mph 1014mB
12:00 2738m 12°C 12_7 0cm 97% 7mph 10mph 1011mB
15:00 2793m 13°C 13_8 0cm 100% 8mph 11mph 1007mB
18:00 2777m 13°C 13_3 0cm 100% 3mph 4mph 1007mB
21:00 2721m 4°C 4_3 0cm 100% 3mph 3mph 1008mB
0:00 2627m 4°C 4_2 0cm 99% 2mph 3mph 1006mB
3:00 2513m 5°C 5_1 0cm 100% 1mph 2mph 1006mB
6:00 2044m 3°C 3_6 0cm 100% 6mph 11mph 1006mB
9:00 1636m 1°C 1_5 7cm 100% 5mph 14mph 1008mB
12:00 1602m 4°C 4_3 4cm 100% 3mph 9mph 1008mB
15:00 1554m 1°C 1_2 3cm 100% 2mph 4mph 1008mB
18:00 1487m 1°C 1_2 4cm 100% 2mph 3mph 1010mB
21:00 1367m -1°C -1_3 2cm 100% 3mph 4mph 1013mB
0:00 1019m -3°C -3_3 1cm 97% 3mph 4mph 1013mB
3:00 584m -6°C -6_5 0cm 35% 5mph 6mph 1014mB
6:00 1327m -6°C -6_3 0cm 24% 3mph 5mph 1014mB
9:00 1725m -1°C -1_0 1cm 21% 0mph 2mph 1013mB
12:00 1892m 5°C 5_2 2cm 60% 2mph 2mph 1012mB
15:00 1971m 6°C 6_1 5cm 48% 1mph 2mph 1010mB
18:00 1914m 6°C 6_1 9cm 65% 1mph 2mph 1012mB
21:00 1768m 0°C 0_4 2cm 99% 4mph 4mph 1014mB
0:00 1237m -2°C -2_4 2cm 86% 4mph 4mph 1014mB
Afternoon 0.151042mm 1.25 1973m 7°C 7_6 0cm 61% 6mph 10mph 1009mB
Morning 0.515625mm 2.875 1270m 0°C 0_3 0cm 66% 3mph 4mph 1013mB
Afternoon 0.00520833mm 0.0625 2319m 11°C 11_8 0cm 13% 8mph 11mph 1009mB
Morning 0.00520833mm 0.0625 1261m 0°C 0_3 0cm 8% 3mph 4mph 1011mB
Afternoon 0mm 0 2775m 14°C 14_10 0cm 25% 10mph 16mph 1006mB
Morning 0mm 0 3281m 4°C 4_4 0cm 82% 4mph 7mph 1005mB
Afternoon 0.00520833mm 0.0625 3307m 16°C 16_11 0cm 38% 11mph 16mph 1002mB
Morning 0.130208mm 1.25 2663m 7°C 7_8 0cm 54% 8mph 22mph 997mB
Afternoon 0.0625mm 0.25 2126m 9°C 9_11 0cm 91% 11mph 17mph 1002mB
Morning 0.46875mm 0.4375 2152m 5°C 5_3 0cm 95% 3mph 3mph 1007mB
Afternoon 0.817708mm 0 1569m 5°C 5_8 7cm 100% 8mph 13mph 1013mB
Morning 0.411458mm 0 1185m -1°C -1_6 3cm 99% 6mph 12mph 1020mB

16 day outlook at a glance

Forecast issued: 22/04/2019 08:24:13

Chat

Your comments and questions. In a resort? Let us know what it's like!


Characters left 250

For terms and conditions see Readers Comments on the Cookie and privacy policy page.